Oxford, MS

6:16 AM CDT on September 21, 2019 (GMT -0500)
University-Oxford

Weather History for KUOX - July, 2019

Change the Weather History Date:

Tuesday, July 16, 2019

  Actual Average Record
Temperature  
Mean Temperature 76 °F -  
Max Temperature 82 °F 91 °F 103 °F (1954)
Min Temperature 71 °F 68 °F 54 °F (1967)
Cooling Degree Days 12    
Growing Degree Days 26 (Base 50)    
Moisture  
Dew Point 73 °F    
Average Humidity 91    
Maximum Humidity 100    
Minimum Humidity 74    
Precipitation  
Precipitation 0.00 in - - ()
Sea Level Pressure  
Sea Level Pressure 30.04 in    
Wind  
Wind Speed 10 mph (South)    
Max Wind Speed 20 mph    
Max Gust Speed 24 mph    
Visibility 9 miles    
Events Rain , Thunderstorm    
Averages and records for this station are not official NWS values.
T = Trace of Precipitation, MM = Missing Value Source: NWS Daily Summary

Daily Weather History Graph

Daily Weather History Graph

Search for Another Location

Airport or City:

Astronomy

Jul. 16, 2019 Rise Set
Actual Time 5:57 AM CDT 8:10 PM CDT
Civil Twilight 5:28 AM CDT 8:39 PM CDT
Nautical Twilight 4:53 AM CDT 9:14 PM CDT
Astronomical Twilight 4:15 AM CDT 9:51 PM CDT
Moon 8:16 PM CDT (7/16) 5:36 AM CDT (7/16)
Length of Visible Light 15h 10m
Length of Day
14h 12m
Full, 100% of the Moon is Illuminated
Jul 16
Full
Jul 16
Full
Jul 24
Last Quarter
Jul 31
New
Aug 7
First Quarter

Hourly Weather History & Observations

Time (CDT) Temp. Heat Index Dew Point Humidity Pressure Visibility Wind Dir Wind Speed Gust Speed Precip Events Conditions
12:15 AM 73.4 °F - 71.6 °F 94% 30.02 in 10.0 mi SSE 9.2 mph - N/A   Overcast
12:35 AM 73.4 °F - 71.6 °F 94% 30.02 in 10.0 mi SSE 9.2 mph 15.0 mph N/A   Mostly Cloudy
12:55 AM 75.2 °F - 71.6 °F 89% 30.02 in 9.0 mi South 10.4 mph - N/A   Overcast
1:15 AM 75.2 °F - 71.6 °F 89% 30.02 in 9.0 mi South 10.4 mph 18.4 mph N/A   Overcast
1:35 AM 75.2 °F - 71.6 °F 89% 30.01 in 10.0 mi South 8.1 mph 16.1 mph N/A   Overcast
1:55 AM 75.2 °F - 71.6 °F 89% 30.01 in 9.0 mi SSE 9.2 mph 16.1 mph N/A   Overcast
2:15 AM 75.2 °F - 71.6 °F 89% 30.01 in 10.0 mi South 10.4 mph 16.1 mph N/A   Overcast
2:35 AM 75.2 °F - 71.6 °F 89% 30.00 in 10.0 mi South 9.2 mph - N/A   Overcast
2:55 AM 75.2 °F - 73.4 °F 94% 30.00 in 10.0 mi South 9.2 mph 15.0 mph N/A   Overcast
3:55 AM 75.2 °F - 73.4 °F 94% 30.00 in 10.0 mi South 9.2 mph 15.0 mph N/A   Overcast
4:15 AM 75.2 °F - 73.4 °F 94% 30.00 in 10.0 mi SSE 9.2 mph 17.3 mph N/A   Overcast
4:35 AM 75.2 °F - 73.4 °F 94% 30.01 in 10.0 mi SSW 8.1 mph 13.8 mph N/A   Overcast
4:55 AM 75.2 °F - 73.4 °F 94% 30.01 in 7.0 mi South 5.8 mph 12.7 mph N/A   Light Drizzle
5:15 AM 75.2 °F - 73.4 °F 94% 30.02 in 10.0 mi SSW 8.1 mph 16.1 mph N/A   Overcast
5:35 AM 75.2 °F - 73.4 °F 94% 30.02 in 8.0 mi South 9.2 mph 20.7 mph N/A   Overcast
5:55 AM 75.2 °F - 73.4 °F 94% 30.03 in 8.0 mi South 8.1 mph 13.8 mph N/A   Mostly Cloudy
6:15 AM 75.2 °F - 73.4 °F 94% 30.03 in 7.0 mi SSE 11.5 mph - N/A   Mostly Cloudy
6:35 AM 73.4 °F - 73.4 °F 100% 30.03 in 8.0 mi Variable 6.9 mph 17.3 mph N/A   Scattered Clouds
6:55 AM 75.2 °F - 75.2 °F 100% 30.03 in 7.0 mi South 5.8 mph 13.8 mph N/A   Mostly Cloudy
7:15 AM 75.2 °F - 75.2 °F 100% 30.04 in 9.0 mi South 9.2 mph - N/A   Mostly Cloudy
7:35 AM 75.2 °F - 73.4 °F 94% 30.04 in 8.0 mi South 8.1 mph 15.0 mph N/A   Mostly Cloudy
7:55 AM 75.2 °F - 75.2 °F 100% 30.04 in 9.0 mi South 9.2 mph - N/A   Overcast
8:15 AM 77.0 °F - 73.4 °F 89% 30.04 in 9.0 mi South 11.5 mph 18.4 mph N/A   Overcast
8:35 AM 77.0 °F - 73.4 °F 89% 30.03 in 9.0 mi South 9.2 mph 16.1 mph N/A   Mostly Cloudy
8:55 AM 78.8 °F - 73.4 °F 83% 30.04 in 9.0 mi SSW 10.4 mph 18.4 mph N/A   Overcast
9:15 AM 78.8 °F - 73.4 °F 83% 30.04 in 9.0 mi South 10.4 mph 24.2 mph N/A   Overcast
9:35 AM 78.8 °F - 73.4 °F 83% 30.05 in 9.0 mi South 10.4 mph - N/A   Overcast
9:55 AM 78.8 °F - 73.4 °F 83% 30.05 in 9.0 mi SSW 9.2 mph 17.3 mph N/A   Mostly Cloudy
10:15 AM 80.6 °F 85.4 °F 73.4 °F 79% 30.06 in 10.0 mi South 8.1 mph 17.3 mph N/A   Overcast
10:35 AM 80.6 °F 85.4 °F 73.4 °F 79% 30.05 in 9.0 mi SSW 10.4 mph 21.9 mph N/A   Overcast
10:55 AM 82.4 °F 88.2 °F 73.4 °F 74% 30.06 in 10.0 mi SSW 15.0 mph 24.2 mph N/A   Mostly Cloudy
11:15 AM 82.4 °F 88.2 °F 73.4 °F 74% 30.05 in 8.0 mi South 11.5 mph 23.0 mph N/A   Mostly Cloudy
11:35 AM 80.6 °F 85.4 °F 73.4 °F 79% 30.05 in 6.0 mi SSW 12.7 mph 20.7 mph N/A   Haze
11:55 AM 82.4 °F 88.2 °F 73.4 °F 74% 30.06 in 9.0 mi SW 19.6 mph - N/A Thunderstorm Thunderstorm
12:15 PM 71.6 °F - 68.0 °F 88% 30.09 in 0.8 mi North - - N/A Rain Rain
12:35 PM 71.6 °F - 69.8 °F 94% 30.09 in 3.0 mi North - - N/A   Scattered Clouds
12:55 PM 71.6 °F - 71.6 °F 100% 30.08 in 9.0 mi North - - N/A   Light Drizzle
1:15 PM 73.4 °F - 71.6 °F 94% 30.07 in 7.0 mi North - - N/A   Light Drizzle
1:35 PM 73.4 °F - 71.6 °F 94% 30.07 in 10.0 mi North - - N/A   Clear
1:55 PM 75.2 °F - 73.4 °F 94% 30.06 in 10.0 mi North - - N/A   Partly Cloudy
2:15 PM 78.8 °F - 73.4 °F 83% 30.06 in 9.0 mi North - - N/A   Clear
2:35 PM 80.6 °F 84.6 °F 71.6 °F 74% 30.05 in 9.0 mi North - - N/A   Scattered Clouds
2:55 PM 78.8 °F - 71.6 °F 78% 30.05 in 9.0 mi North - - N/A   Mostly Cloudy
3:15 PM 78.8 °F - 71.6 °F 78% 30.05 in 9.0 mi North - - N/A   Scattered Clouds
3:35 PM 78.8 °F - 71.6 °F 78% 30.04 in 10.0 mi North - - N/A   Scattered Clouds
3:55 PM 80.6 °F 85.4 °F 73.4 °F 79% 30.04 in 9.0 mi North - - N/A   Unknown
4:15 PM 80.6 °F 85.4 °F 73.4 °F 79% 30.04 in 9.0 mi North - - N/A   Scattered Clouds
4:35 PM 77.0 °F - 73.4 °F 89% 30.04 in 4.0 mi North - - N/A   Light Drizzle
4:55 PM 75.2 °F - 73.4 °F 94% 30.03 in 5.0 mi North - - N/A Rain Light Rain
5:15 PM 75.2 °F - 73.4 °F 94% 30.02 in 8.0 mi North - - N/A   Clear
5:35 PM 75.2 °F - 73.4 °F 94% 30.02 in 10.0 mi North - - N/A   Clear
5:55 PM 75.2 °F - 73.4 °F 94% 30.03 in 9.0 mi North - - N/A   Partly Cloudy
6:15 PM 75.2 °F - 73.4 °F 94% 30.03 in 9.0 mi North - - N/A   Scattered Clouds
6:35 PM 75.2 °F - 75.2 °F 100% 30.03 in 8.0 mi North - - N/A   Scattered Clouds
6:55 PM 75.2 °F - 75.2 °F 100% 30.01 in 9.0 mi North - - N/A   Partly Cloudy
7:15 PM 75.2 °F - 73.4 °F 94% 30.02 in 9.0 mi North - - N/A   Partly Cloudy
7:35 PM 75.2 °F - 73.4 °F 94% 30.02 in 9.0 mi North - - N/A   Clear
7:55 PM 75.2 °F - 73.4 °F 94% 30.02 in 9.0 mi North - - N/A   Scattered Clouds
8:15 PM 73.4 °F - 73.4 °F 100% 30.02 in 9.0 mi North - - N/A   Mostly Cloudy
8:35 PM 73.4 °F - 73.4 °F 100% 30.03 in 10.0 mi North - - N/A   Mostly Cloudy
8:55 PM 73.4 °F - 73.4 °F 100% 30.03 in 10.0 mi North - - N/A   Overcast
9:15 PM 73.4 °F - 73.4 °F 100% 30.04 in 10.0 mi North - - N/A   Overcast
9:35 PM 73.4 °F - 73.4 °F 100% 30.04 in 10.0 mi North - - N/A   Overcast
9:55 PM 73.4 °F - 73.4 °F 100% 30.05 in 6.0 mi North - - N/A Rain Rain
10:15 PM 73.4 °F - 73.4 °F 100% 30.05 in 10.0 mi North - - N/A   Mostly Cloudy
10:35 PM 73.4 °F - 73.4 °F 100% 30.04 in 10.0 mi North - - N/A   Partly Cloudy
10:55 PM 73.4 °F - 71.6 °F 94% 30.04 in 10.0 mi North - - N/A   Clear
11:15 PM 73.4 °F - 71.6 °F 94% 30.04 in 10.0 mi North - - N/A   Mostly Cloudy
11:35 PM 73.4 °F - 73.4 °F 100% 30.07 in 10.0 mi North - - N/A   Overcast
11:55 PM 71.6 °F - 71.6 °F 100% 30.05 in 0.8 mi North - - N/A Rain Heavy Rain